Printer-friendly version

IAU Minor Planet Center

Minor Planet Center

MPEC 2007-R27 : 2007 OC10

The following Minor Planet Electronic Circular may be linked-to from your own Web pages, but must not otherwise be redistributed electronically.


Read MPEC 2007-R26 Read MPEC 2007-R28


M.P.E.C. 2007-R27                                Issued 2007 Sept. 6, 13:01 UT

     The Minor Planet Electronic Circulars contain information on unusual
         minor planets and routine data on comets.  They are published
   on behalf of Commission 20 of the International Astronomical Union by the
          Minor Planet Center, Smithsonian Astrophysical Observatory,
                          Cambridge, MA 02138, U.S.A.

             Prepared using the Tamkin Foundation Computer Network

                              MPC@CFA.HARVARD.EDU
          URL http://www.cfa.harvard.edu/iau/mpc.html  ISSN 1523-6714

                                   2007 OC10

Observations:
     K07O10C* C2007 07 22.36599 20 26 36.72 -01 10 22.9          20.6 R ER027675
     K07O10C  C2007 07 22.41690 20 26 36.46 -01 10 23.5          20.9 R ER027675
     K07O10C  C2007 07 24.19947 20 26 26.91 -01 10 44.1          20.6 R ER027675
     K07O10C  C2007 07 24.24589 20 26 26.61 -01 10 44.3          21.1 R ER027675
     K07O10C  C2007 08 05.36813 20 25 21.34 -01 13 48.3                 ER027675
     K07O10C  C2007 08 05.42330 20 25 21.04 -01 13 49.1                 ER027675
     K07O10C  C2007 08 15.23407 20 24 29.84 -01 17 08.4                 ER027675
     K07O10C  C2007 08 15.28548 20 24 29.59 -01 17 09.5                 ER027675
     K07O10C  C2007 08 15.33373 20 24 29.29 -01 17 11.0                 ER027675
     K07O10C  C2007 09 03.17394 20 23 02.35 -01 25 08.4                 ER027675
     K07O10C  C2007 09 03.22817 20 23 02.10 -01 25 09.1                 ER027675
     K07O10C  C2007 09 03.29760 20 23 01.80 -01 25 11.3                 ER027675
     K07O10C  C2007 09 03.35149 20 23 01.60 -01 25 12.8                 ER027675

Observer details:
675 Palomar Mountain.  Observers M. E. Schwamb, M. E. Brown.  1.2-m Oschin
    Schmidt + CCD.

Orbital elements:
2007 OC10
Eccentricity assumed
Epoch 2007 Aug. 8.0 TT = JDT 2454320.5                  MPC
M  12.06494              (2000.0)            P               Q
n   0.00272511     Peri.   28.33387     +0.25075062     +0.89817944
a  50.7628882      Node   258.13691     -0.94317649     +0.14265454
e   0.3158338      Incl.   21.65318     -0.21804184     +0.41584057
P 362              H    5.7           G   0.15
From 13 observations 2007 July 22-Sept. 3.

Ephemeris:
2007 OC10                a,e,i = 50.76, 0.32, 22                 q = 34.730
Date    TT    R. A. (2000) Decl.     Delta      r     Elong.  Phase     V
2007 09 07    20 22.79   -01 26.9   34.701   35.483   140.3     1.0    21.3
2007 09 17    20 22.22   -01 31.7   34.813   35.486   131.4     1.2    21.3
2007 09 27    20 21.81   -01 36.6   34.944   35.490   122.3     1.4    21.4
2007 10 07    20 21.55   -01 41.3   35.091   35.493   112.9     1.5    21.4
2007 10 17    20 21.48   -01 45.7   35.250   35.496   103.5     1.6    21.4
2007 10 27    20 21.59   -01 49.5   35.416   35.499    94.0     1.6    21.4
2007 11 06    20 21.89   -01 52.7   35.584   35.503    84.5     1.6    21.4
2007 11 16    20 22.37   -01 55.1   35.749   35.506    75.0     1.5    21.4
2007 11 26    20 23.02   -01 56.5   35.906   35.510    65.6     1.5    21.4
2007 12 06    20 23.83   -01 57.0   36.051   35.513    56.2     1.3    21.4
2007 12 16    20 24.77   -01 56.4   36.180   35.516    47.0     1.2    21.4
2007 12 26    20 25.83   -01 54.7   36.289   35.520    38.0     1.0    21.4

Brian G. Marsden             (C) Copyright 2007 MPC           M.P.E.C. 2007-R27

Read MPEC 2007-R26 Read MPEC 2007-R28


Our Web policy. Index to the CBAT/MPC/ICQ pages.


Valid HTML 4.01!